Lewistown, MT

11:13 PM MDT on October 19, 2017 (GMT -0600)
Lewistown Municipal

Weather History for KLWT - August, 2014

Change the Weather History Date:

Monday, August 25, 2014

  Actual Average Record
Temperature  
Mean Temperature 56 °F 63 °F  
Max Temperature 65 °F 78 °F 99 °F (2008)
Min Temperature 47 °F 48 °F 27 °F (1910)
Degree Days  
Heating Degree Days 9 4  
Month to date heating degree days 55 56  
Since 1 June heating degree days 351 356  
Since 1 July heating degree days 65 129  
Cooling Degree Days 0 2  
Month to date cooling degree days 122 79  
Year to date cooling degree days 276 189  
Since 1 June cooling degree days 276 187  
Growing Degree Days 5 (Base 50)    
Moisture  
Dew Point 45 °F    
Average Humidity 67    
Maximum Humidity 86    
Minimum Humidity 48    
Precipitation  
Precipitation 0.01 in 0.05 in 1.16 in (1979)
Month to date precipitation 5.97 1.40  
Year to date precipitation 14.99 12.67  
Snow  
Snow 0.00 in - - ()
Snow Depth 0.00 in    
Sea Level Pressure  
Sea Level Pressure 30.14 in    
Wind  
Wind Speed 6 mph (SE)    
Max Wind Speed 13 mph    
Max Gust Speed 17 mph    
Visibility 10 miles    
Events Rain    
T = Trace of Precipitation, MM = Missing Value Source: NWS Daily Summary

Daily Weather History Graph

Daily Weather History Graph

Search for Another Location

Airport or City:

Trip Planner

Search our weather history database for the weather conditions in past years. The results will help you decide how hot, cold, wet, or windy it might be!

Date:

Astronomy

Aug. 25, 2014 Rise Set
Actual Time 6:28 AM MDT 8:10 PM MDT
Civil Twilight 5:55 AM MDT 8:42 PM MDT
Nautical Twilight 5:16 AM MDT 9:22 PM MDT
Astronomical Twilight 4:33 AM MDT 10:04 PM MDT
Moon 6:40 AM MDT (8/25) 7:57 PM MDT (8/25)
Length of Visible Light 14h 46m
Length of Day
13h 42m
New Moon, 0% of the Moon is Illuminated
Aug 25
New Moon
Sep 2
First Quarter
Sep 8
Full
Sep 15
Last Quarter
Sep 24
New

Hourly Weather History & Observations

Time (MDT) Temp. Dew Point Humidity Pressure Visibility Wind Dir Wind Speed Gust Speed Precip Events Conditions
12:54 AM 46.9 °F 44.1 °F 90% 30.15 in 10.0 mi Calm Calm - 0.00 in Rain Light Rain
1:54 AM 48.0 °F 43.0 °F 83% 30.15 in 10.0 mi West 9.2 mph - 0.00 in Rain Light Rain
3:54 AM 48.0 °F 44.1 °F 86% 30.14 in 10.0 mi West 8.1 mph - N/A   Overcast
4:54 AM 48.0 °F 44.1 °F 86% 30.16 in 10.0 mi West 6.9 mph - N/A   Overcast
5:51 AM 48.2 °F 44.6 °F 87% 30.18 in 10.0 mi WSW 5.8 mph - N/A   Overcast
6:22 AM 48.0 °F 44.1 °F 86% 30.18 in 10.0 mi West 3.5 mph - N/A   Overcast
6:54 AM 48.0 °F 44.1 °F 86% 30.18 in 10.0 mi NW 3.5 mph - N/A   Overcast
7:36 AM 48.0 °F 45.0 °F 89% 30.19 in 10.0 mi West 5.8 mph - 0.00 in   Overcast
8:36 AM 46.9 °F 45.0 °F 93% 30.21 in 8.0 mi North 3.5 mph - 0.01 in   Overcast
8:54 AM 48.0 °F 44.1 °F 86% 30.20 in 10.0 mi Calm Calm - 0.01 in   Overcast
9:20 AM 48.9 °F 45.0 °F 86% 30.20 in 10.0 mi Calm Calm - N/A   Overcast
9:54 AM 50.0 °F 44.1 °F 80% 30.20 in 10.0 mi Calm Calm - N/A   Overcast
10:31 AM 52.0 °F 45.0 °F 77% 30.20 in 10.0 mi Calm Calm - N/A   Overcast
10:51 AM 51.8 °F 44.6 °F 76% 30.20 in 10.0 mi SSE 4.6 mph - N/A   Overcast
10:54 AM 52.0 °F 45.0 °F 77% 30.19 in 10.0 mi Calm Calm - N/A   Overcast
11:19 AM 54.0 °F 44.1 °F 69% 30.20 in 10.0 mi Calm Calm - N/A   Overcast
11:54 AM 55.0 °F 44.1 °F 67% 30.17 in 10.0 mi Variable 3.5 mph - N/A   Overcast
12:54 PM 57.0 °F 45.0 °F 64% 30.14 in 10.0 mi Calm Calm - N/A   Overcast
1:05 PM 57.0 °F 45.0 °F 64% 30.16 in 10.0 mi ESE 8.1 mph - N/A   Overcast
1:25 PM 59.0 °F 45.0 °F 60% 30.16 in 10.0 mi SE 8.1 mph - N/A   Scattered Clouds
1:54 PM 59.0 °F 46.0 °F 62% 30.12 in 10.0 mi SE 6.9 mph - N/A   Scattered Clouds
2:54 PM 62.1 °F 46.0 °F 56% 30.09 in 10.0 mi SE 6.9 mph - N/A   Mostly Cloudy
3:54 PM 62.1 °F 45.0 °F 53% 30.07 in 10.0 mi SSE 6.9 mph - N/A   Overcast
4:54 PM 64.0 °F 45.0 °F 50% 30.05 in 10.0 mi East 9.2 mph - N/A   Partly Cloudy
5:54 PM 64.0 °F 44.1 °F 48% 30.04 in 10.0 mi East 3.5 mph - N/A   Mostly Cloudy
6:54 PM 64.0 °F 45.0 °F 50% 30.03 in 10.0 mi ESE 6.9 mph - N/A   Clear
7:54 PM 57.9 °F 46.0 °F 65% 30.04 in 10.0 mi East 8.1 mph - N/A   Clear
9:54 PM 52.0 °F 46.0 °F 80% 30.07 in 10.0 mi East 8.1 mph - N/A   Clear
10:54 PM 50.0 °F 45.0 °F 83% 30.08 in 10.0 mi ESE 8.1 mph - N/A   Clear
11:54 PM 48.9 °F 44.1 °F 83% 30.08 in 10.0 mi ESE 9.2 mph - N/A   Clear